Regional Weather Roundup
Issued by NWS

Home | Current Version | Previous Version | Graphics & Text | Print | Product List | Glossary On
Versions: 1 2 3 4 5 6 7 8 9 10 11 12 13 14 15 16 17 18 19 20 21 22 23 24 25 26 27 28 29 30 31 32 33 34 35 36 37 38 39 40 41 42 43 44 45 46 47 48 49 50
000
ASUS45 KCYS 101010
RWRWY

WYOMING REGIONAL WEATHER ROUNDUP
NATIONAL WEATHER SERVICE CHEYENNE WY
300 AM MST SAT DEC 10 2016

NOTE:  "FAIR" INDICATES FEW OR NO CLOUDS BELOW 12,000 FEET
WITH NO SIGNIFICANT WEATHER AND/OR OBSTRUCTIONS TO VISIBILITY.

WYZ001-101100-
YELLOWSTONE NATIONAL PARK

CITY           SKY/WX    TMP DP  RH WIND       PRES   REMARKS
LK YELLOWSTONE   N/A     27  25  92 VRB5G17   29.85S WCI  22
W YELLOWSTONE  NOT AVBL

$$
WYZ002>013-054>058-071-098>099-101100-
NORTHERN WYOMING

CITY           SKY/WX    TMP DP  RH WIND       PRES   REMARKS
JACKSON        CLOUDY    30  30 100 SW7       29.87F WCI  23
CODY           FLURRIES  10   5  80 S3        29.86F
GREYBULL       FAIR       8   2  76 SE3       29.94F
WORLAND        FAIR       2  -1  88 CALM      29.91F
SHERIDAN       MOCLDY     8   3  80 W6        29.94F WCI  -2
BUFFALO        MOCLDY     9   1  70 N3        29.86F
GILLETTE       FAIR       2  -2  83 SE12      29.93F WCI -15
HULETT         FAIR       1  -4  78 MISG      29.98F
NEWCASTLE      FAIR       1  -2  85 SE8       30.02F WCI -12

$$
WYZ014>020-022>026-101>103-101100-
CENTRAL WYOMING

CITY           SKY/WX    TMP DP  RH WIND       PRES   REMARKS
BIG PINEY      FLURRIES  17  15  92 CALM      29.95F
PINEDALE       CLOUDY    27  27 100 MISG      29.96F
DUBOIS         CLOUDY    34  25  69 W25G33    29.79F WCI  21
LANDER         FAIR      12   6  77 CALM      29.84F
RIVERTON       FAIR      10   6  84 CALM      29.86F
CASPER         FAIR      36  27  69 SW23      29.86F WCI  24
DOUGLAS        FAIR       6   2  83 SE5       29.93F WCI  -3

$$
WYZ021-027>030-104>119-101100-
SOUTHERN WYOMING

CITY           SKY/WX    TMP DP  RH WIND       PRES   REMARKS
EVANSTON       MOCLDY    36  22  56 SW10      30.01F WCI  28
KEMMERER         N/A     32  27  80 W15       29.99S WCI  22
FORT BRIDGER   PTSUNNY   38  26  61 W16       30.02F WCI  29
ROCK SPRINGS   CLOUDY    31  22  69 SW8       29.99F WCI  23
DIXON          FAIR      32  23  70 W9        30.08F WCI  24
RAWLINS        CLOUDY    35  21  56 SW23G33   29.96F WCI  23
SARATOGA       CLOUDY    34  25  69 S6        30.01F WCI  29
LARAMIE        CLOUDY    38  20  48 SW22G30     N/A  WCI  27
CHEYENNE       MOCLDY    28  20  71 CALM      29.96F
TORRINGTON     FAIR      14   8  77 E9        29.98F WCI   2
PINE BLUFFS    PTSUNNY   21  18  86 S5G16     29.99F WCI  15

$$



USA.gov is the U.S. government's official web portal to all federal, state and local government web resources and services.